カタログに戻る

JILIN-1 GAOFEN 07A 02 XING

運用中科学SSO
NORAD 68691·PAYLOAD·🇨🇳 China
この衛星名は、まだ公式ソースで確認されていません。

打ち上げ Apr 14, 2026 から Jiuquan Satellite Launch Center

Loading…

次のパス (今後24時間)

TLE

最新Source: Space-Track

元期: Sep 14, 2026, 13:01 UTC

1 68691U 26080A   26257.54238157  .00003910  00000-0  25235-3 0  9996
2 68691  97.6557 332.8850 0014828 124.6252 235.6377 15.08777441 23131

AllMySatでJILIN-1 GAOFEN 07A 02 XINGをリアルタイム追跡

Download on the App Store